Weather Roundup
Issued by NWS

Home | Current Version | Previous Version | Graphics & Text | Print | Product List | Glossary Off
Versions: 1 2 3 4 5 6 7 8 9 10 11 12 13 14 15 16 17 18 19 20 21 22 23 24 25 26 27 28 29 30 31 32 33 34 35 36 37 38 39 40 41 42 43 44 45 46 47 48 49 50

732
NZUS93 KARX 170310
HRRWXR

CURRENT HOURLY OBSERVATIONS ACROSS
MUCH OF THE UPPER MISSISSIPPI VALLEY
NATIONAL WEATHER SERVICE LA CROSSE WI
900 PM CST THU NOV 16 2017


...SOUTHEAST MINNESOTA...


CITY           SKY/WX    TMP DP  RH WIND       PRES   REMARKS
ROCHESTER      CLOUDY    32  28  85 SE18G25   30.01F WCI  20
ROCHESTER/MAYO FAIR      33  28  81 SE16G23   30.02F WCI  22
WINONA         CLOUDY    34  28  80 SE10      30.11F WCI  26
AUSTIN         CLOUDY    32  27  80 SE14      30.00F WCI  22
ALBERT LEA     CLOUDY    32  27  80 SE17G25   29.98F WCI  21
DODGE CENTER   CLOUDY    32  27  80 SE18G25   29.99F WCI  20
PRESTON        CLOUDY    32  26  80 SE13      30.06F WCI  22
OWATONNA       CLOUDY    34  28  80 SE20G25   29.97F WCI  22
FARIBAULT      CLOUDY    34  28  80 SE15G24   29.99S WCI  24
$$

...ELSEWHERE IN MINNESOTA...


CITY           SKY/WX    TMP DP  RH WIND       PRES   REMARKS
MINNEAPOLIS    CLOUDY    34  28  79 SE10      30.00F WCI  26
INTNL FALLS    CLOUDY    28  22  78 SE17G23   29.89F WCI  16
DULUTH         LGT SNOW  26  24  92 SE13      30.02F FOG     WCI  15
RED WING       CLOUDY    34  25  69 SE14G20   30.03F WCI  24
REDWOOD FALLS  CLOUDY    31  26  82 SE18      29.88F WCI  19
MANKATO        CLOUDY    32  27  81 SE20G26   29.94F WCI  20
WORTHINGTON    CLOUDY    31  26  82 S18G25    29.85F WCI  19
FAIRMONT       PTCLDY    31  27  85 SE20G26   29.91F WCI  19
$$

...SOUTHWEST WISCONSIN...


CITY           SKY/WX    TMP DP  RH WIND       PRES   REMARKS
LA CROSSE      PTCLDY    36  27  69 SE13      30.12R WCI  27
PRAIRIE DU CHI CLOUDY    35  27  73 SE7       30.15R WCI  29
BOSCOBEL       CLOUDY    36  27  69 VRB3      30.16S
LONE ROCK      CLOUDY    35  28  75 S13G20    30.17F WCI  26
PLATTEVILLE    CLOUDY    33  30  88 SE14      30.16S WCI  24
FORT MC COY    CLOUDY    33  27  77 S5        30.17R WCI  29
CAMP DOUGLAS   CLOUDY    33  25  73 SE10      30.12F WCI  24
MAUSTON-NEW LI CLOUDY    33  26  76 SE6       30.13F WCI  27
VIROQUA        FAIR      32  30  92 SE12G17   30.11R WCI  23
WIS DELLS      PTCLDY    32  26  77 SE10      30.14F WCI  24
$$

...ELSEWHERE IN WISCONSIN...


CITY           SKY/WX    TMP DP  RH WIND       PRES   REMARKS
MILWAUKEE      CLOUDY    37  30  75 SE6       30.23F WCI  32
MADISON        CLOUDY    33  27  78 SE10      30.18F WCI  25
GREEN BAY      CLOUDY    32  25  75 SE10      30.24F WCI  24
EAU CLAIRE     CLOUDY    33  24  69 SE15      30.09F WCI  23
BLACK RVR FLS  MOCLDY    33  24  68 SE5       30.14S WCI  29
MEDFORD        CLOUDY    29  24  80 SE12      30.11S WCI  19
WAUSAU         CLOUDY    29  23  78 SE13G21   30.15R WCI  19
WIS RAPIDS     CLOUDY    32  24  72 SE10      30.16F WCI  24
MARSHFIELD     CLOUDY    32  23  69 SE10      30.12F WCI  24
RICE LAKE      CLOUDY    32  25  77 SE14      30.06F WCI  22
$$

...NORTHEAST IOWA...


CITY           SKY/WX    TMP DP  RH WIND       PRES   REMARKS
WATERLOO       CLOUDY    33  27  78 SE17G26   30.07F WCI  22
DUBUQUE        CLOUDY    32  27  81 S10       30.16F WCI  24
DECORAH        CLOUDY    34  28  80 S9G17     30.09S WCI  26
MASON CITY     PTCLDY    32  27  81 SE20G28   30.00F WCI  20
CHARLES CITY   CLOUDY    34  30  86 SE17G26   30.04F WCI  23
OELWEIN        CLOUDY    34  32  93 S17       30.10S WCI  23
$$

...ELSEWHERE IN IOWA...


CITY           SKY/WX    TMP DP  RH WIND       PRES   REMARKS
DES MOINES     CLOUDY    34  28  79 SE10      30.03F WCI  26
IOWA CITY      PTCLDY    33  28  81 SE9       30.17F WCI  25
FORT DODGE     CLOUDY    32  28  85 SE13G21   29.96F WCI  22
MARSHALLTOWN   PTCLDY    32  28  85 SE17      30.04F WCI  21
CEDAR RAPIDS   PTCLDY    32  28  85 SE16      30.12F WCI  21
$$

...NORTHERN ILLINOIS...


CITY           SKY/WX    TMP DP  RH WIND       PRES   REMARKS
CHICAGO-OHARE  CLOUDY    37  28  70 E8        30.24F WCI  31
CHICAGO-MIDWAY CLOUDY    38  30  73 E5        30.25F WCI  34
MOLINE         PTCLDY    33  27  78 SE9       30.20F WCI  25
ROCKFORD       CLOUDY    34  27  75 S9        30.24F WCI  27
PEORIA         CLOUDY    33  29  85 SE9       30.23S WCI  25
$$

NOTE: "FAIR" INDICATES FEW OR NO CLOUDS BELOW 12,000 FEET WITH NO
SIGNIFICANT WEATHER AND/OR OBSTRUCTIONS TO VISIBILITY. WIND
SPEEDS ARE IN MILES-PER-HOUR.




USA.gov is the U.S. government's official web portal to all federal, state and local government web resources and services.